Weather reports worldwide

Advertisment
Shoreham Airport, United Kingdom (3876): temperature & dewpoint: 22.03.2020 21:00:00 - 28.03.2020 21:00:00 (GMT)Shoreham Airport, United Kingdom (3876): wind speed & gusts: 22.03.2020 21:00:00 - 28.03.2020 21:00:00 (GMT)Shoreham Airport, United Kingdom (3876): wind direction: 22.03.2020 21:00:00 - 28.03.2020 21:00:00 (GMT)Shoreham Airport, United Kingdom (3876): reduced air pressure: 22.03.2020 21:00:00 - 28.03.2020 21:00:00 (GMT)Shoreham Airport, United Kingdom (3876): visibility: 22.03.2020 21:00:00 - 28.03.2020 21:00:00 (GMT)Shoreham Airport, United Kingdom (3876): precipitation: 22.03.2020 21:00:00 - 28.03.2020 21:00:00 (GMT)
Date & Time tt [°C] td [°C] ff [km/h] ff [kn] fx [km/h] fx [kn] dd ppp [hPa] vv [km] rr [mm]
28.03.2020 21:00:00 6,2 0,1 34 18 55 30 N 1031,4 - 0,0
28.03.2020 20:00:00 7,5 0,2 31 17 63 34 N 1030,6 - 0,0
28.03.2020 19:00:00 8,2 -0,5 34 18 55 30 NNE 1029,7 10 0,0
28.03.2020 18:00:00 9,0 0,8 39 21 59 32 NNE 1028,8 10 0,0
28.03.2020 17:00:00 9,3 1,9 46 25 72 39 NNE 1027,9 10 0,0
28.03.2020 16:00:00 9,7 2,9 37 20 65 35 NNE 1027,5 10 0,0
28.03.2020 15:00:00 10,8 3,5 50 27 67 36 NNE 1026,9 10 0,0
28.03.2020 14:00:00 12,1 1,8 48 26 70 38 NNE 1026,4 10 0,0
28.03.2020 13:00:00 11,6 1,4 39 21 67 36 NNE 1026,2 10 0,0
28.03.2020 12:00:00 11,5 1,7 42 23 63 34 NNE 1025,9 10 0,0
28.03.2020 11:00:00 11,1 2,1 46 25 67 36 NNE 1025,6 10 0,0
28.03.2020 10:00:00 10,1 2,5 39 21 57 31 NNE 1025,5 10 0,0
28.03.2020 09:00:00 8,2 2,7 34 18 55 30 N 1025,3 - 0,0
28.03.2020 08:00:00 6,7 2,6 37 20 54 29 N 1024,5 - 0,0
28.03.2020 07:00:00 5,2 1,8 24 13 - - N 1024,5 - 0,0
28.03.2020 06:00:00 4,6 1,5 18 10 - - N 1024,1 - 0,0
28.03.2020 05:00:00 4,9 1,8 24 13 - - N 1023,6 - 0,0
28.03.2020 04:00:00 4,9 1,8 26 14 - - N 1023,2 - 0,0
28.03.2020 03:00:00 5,1 1,7 26 14 - - N 1023,1 - 0,0
28.03.2020 02:00:00 5,3 1,4 29 16 - - N 1023,1 - 0,0
28.03.2020 01:00:00 5,6 0,9 28 15 - - N 1023,3 - 0,0
28.03.2020 00:00:00 5,8 0,4 26 14 - - N 1023,3 - 0,0
27.03.2020 23:00:00 6,5 -0,5 24 13 - - N 1023,5 - 0,0
27.03.2020 22:00:00 7,3 -1,1 22 12 - - N 1023,4 - 0,0
27.03.2020 21:00:00 8,4 -1,4 26 14 - - N 1023,1 - 0,0
27.03.2020 20:00:00 8,9 -0,3 18 10 - - NNE 1022,8 - 0,0
27.03.2020 19:00:00 9,7 0,5 21 11 - - NNE 1022,3 10 0,0
27.03.2020 18:00:00 10,7 0,7 18 10 - - NNE 1021,5 10 0,0
27.03.2020 17:00:00 11,9 0,4 24 13 - - NNE 1021,0 10 0,0
27.03.2020 16:00:00 12,8 0,4 28 15 46 25 NNE 1021,0 10 0,0
27.03.2020 15:00:00 12,8 0,0 31 17 46 25 NNE 1021,3 10 0,0
27.03.2020 14:00:00 12,6 0,2 31 17 46 25 NNE 1021,7 10 0,0
27.03.2020 13:00:00 12,6 1,9 29 16 - - NE 1022,1 10 0,0
27.03.2020 12:00:00 12,3 3,2 24 13 - - NNE 1022,6 10 0,0
27.03.2020 11:00:00 11,2 2,7 22 12 - - NNE 1022,8 10 0,0
27.03.2020 10:00:00 9,6 2,9 22 12 - - N 1022,9 10 0,0
27.03.2020 09:00:00 6,5 3,4 22 12 - - N 1022,9 - 0,0
27.03.2020 08:00:00 3,9 2,2 18 10 - - N 1022,8 - 0,0
27.03.2020 07:00:00 1,6 0,6 16 9 - - NNW 1022,6 - 0,0
27.03.2020 06:00:00 1,0 -0,1 18 10 - - NNW 1022,6 - 0,0
27.03.2020 05:00:00 1,3 0,1 16 9 - - NNW 1022,3 - 0,0
27.03.2020 04:00:00 1,5 -0,1 21 11 - - N 1022,3 - 0,0
27.03.2020 03:00:00 1,7 -0,3 21 11 - - NNW 1022,2 - 0,0
27.03.2020 02:00:00 2,0 -0,4 15 8 - - N 1022,4 - 0,0
27.03.2020 01:00:00 2,5 0,0 16 9 - - N 1022,5 - 0,0
27.03.2020 00:00:00 2,6 -0,3 16 9 - - N 1022,5 - 0,0
26.03.2020 23:00:00 4,7 0,5 21 11 - - NNE 1022,4 - 0,0
26.03.2020 22:00:00 4,8 0,1 21 11 - - NNE 1022,6 - 0,0
26.03.2020 21:00:00 4,8 -0,5 16 9 - - NNE 1022,7 - 0,0
26.03.2020 20:00:00 5,2 -1,7 15 8 - - NE 1022,5 - 0,0
26.03.2020 19:00:00 6,5 -3,8 16 9 - - NE 1021,7 10 0,0
26.03.2020 18:00:00 8,0 -5,8 24 13 - - NE 1021,3 10 0,0
26.03.2020 17:00:00 9,9 -5,2 22 12 - - NE 1021,4 10 0,0
26.03.2020 16:00:00 11,0 -4,8 26 14 - - NNE 1021,3 10 0,0
26.03.2020 15:00:00 11,6 -0,9 26 14 - - NNE 1021,2 10 0,0
26.03.2020 14:00:00 12,1 -2,5 29 16 - - NE 1021,3 10 0,0
26.03.2020 13:00:00 12,0 -0,3 26 14 - - NE 1021,7 10 0,0
26.03.2020 12:00:00 11,3 3,5 24 13 - - NE 1022,1 10 0,0
26.03.2020 11:00:00 10,1 2,9 24 13 - - NNE 1022,5 10 0,0
26.03.2020 10:00:00 8,6 2,3 26 14 - - NE 1022,7 10 0,0
26.03.2020 09:00:00 5,4 2,5 13 7 - - N 1022,7 - 0,0
26.03.2020 08:00:00 3,0 1,0 16 9 - - N 1022,4 - 0,0
26.03.2020 07:00:00 0,9 -0,5 18 10 - - N 1022,1 - 0,0
26.03.2020 06:00:00 1,2 -0,3 24 13 - - N 1021,7 - 0,0
26.03.2020 05:00:00 1,1 -0,7 22 12 - - N 1021,5 - 0,0
26.03.2020 04:00:00 1,4 -0,7 24 13 - - N 1021,7 - 0,0
26.03.2020 03:00:00 1,9 -0,5 16 9 - - N 1021,9 - 0,0
26.03.2020 02:00:00 2,0 -0,8 21 11 - - N 1022,2 - 0,0
26.03.2020 01:00:00 1,8 -0,9 18 10 - - NNW 1022,4 - 0,0
26.03.2020 00:00:00 3,1 -0,5 21 11 - - N 1022,6 - 0,0
25.03.2020 23:00:00 3,2 -0,9 21 11 - - N 1023,0 - 0,0
25.03.2020 22:00:00 3,1 -1,2 16 9 - - N 1023,1 - 0,0
25.03.2020 21:00:00 2,9 -2,0 11 6 - - NNE 1023,1 - 0,0
25.03.2020 20:00:00 4,8 -1,6 15 8 - - NNE 1022,9 - 0,0
25.03.2020 19:00:00 5,3 -1,7 8 4 - - NNE 1022,4 10 0,0
25.03.2020 18:00:00 7,9 1,4 15 8 - - ESE 1022,0 10 0,0
25.03.2020 17:00:00 9,3 2,1 15 8 - - ESE 1022,2 10 0,0
25.03.2020 16:00:00 10,2 2,4 15 8 - - ESE 1022,6 10 0,0
25.03.2020 15:00:00 9,8 2,5 15 8 - - ESE 1023,1 10 0,0
25.03.2020 14:00:00 9,7 2,7 15 8 - - SE 1023,7 10 0,0
25.03.2020 13:00:00 9,4 1,8 16 9 - - SE 1024,4 10 0,0
25.03.2020 12:00:00 9,3 1,9 16 9 - - SE 1024,7 10 0,0
25.03.2020 11:00:00 9,6 2,3 15 8 - - ESE 1024,9 10 0,0
25.03.2020 10:00:00 9,3 1,4 16 9 - - ESE 1024,9 10 0,0
25.03.2020 09:00:00 8,9 0,6 16 9 - - E 1025,0 10 0,0
25.03.2020 08:00:00 6,0 1,3 8 4 - - N 1025,0 - 0,0
25.03.2020 07:00:00 2,4 -0,7 9 5 - - N 1024,9 - 0,0
25.03.2020 06:00:00 6,3 -1,1 11 6 - - SE 1024,7 - 0,0
25.03.2020 05:00:00 6,8 -1,6 13 7 - - SE 1024,6 - 0,0
25.03.2020 04:00:00 7,0 -0,4 15 8 - - SE 1024,2 - 0,0
25.03.2020 03:00:00 6,9 0,4 15 8 - - SE 1024,6 - 0,0
25.03.2020 02:00:00 5,1 2,2 9 5 - - E 1024,7 - 0,0
25.03.2020 01:00:00 5,9 2,7 13 7 - - E 1024,7 - 0,0
25.03.2020 00:00:00 7,2 2,9 18 10 - - E 1024,7 - 0,0
24.03.2020 23:00:00 6,7 0,7 16 9 - - E 1024,8 - 0,0
24.03.2020 22:00:00 5,5 0,4 13 7 - - E 1024,9 - 0,0
24.03.2020 21:00:00 4,4 -1,5 5 3 - - ENE 1025,0 - 0,0
24.03.2020 20:00:00 3,3 -1,0 8 4 - - N 1025,0 - 0,0
24.03.2020 19:00:00 5,4 -0,1 8 4 - - E 1025,1 10 0,0
24.03.2020 18:00:00 7,7 1,1 13 7 - - ESE 1024,9 10 0,0
24.03.2020 17:00:00 8,5 1,8 13 7 - - ESE 1024,9 10 0,0
24.03.2020 16:00:00 8,7 2,5 15 8 - - ESE 1025,2 10 0,0
24.03.2020 15:00:00 9,1 3,7 15 8 - - ESE 1025,6 10 0,0
24.03.2020 14:00:00 9,6 4,1 29 16 - - ESE 1026,2 10 0,0
24.03.2020 13:00:00 9,4 3,3 32 17 - - ESE 1026,7 10 0,0
24.03.2020 12:00:00 9,2 2,9 36 19 - - ESE 1026,7 10 0,0
24.03.2020 11:00:00 9,3 3,6 36 19 - - ESE 1027,2 10 0,0
24.03.2020 10:00:00 8,9 2,7 18 10 - - ESE 1027,2 10 0,0
24.03.2020 09:00:00 8,3 1,5 18 10 - - ESE 1027,0 - 0,0
24.03.2020 08:00:00 7,8 1,3 16 9 - - SE 1026,8 - 0,0
24.03.2020 07:00:00 6,9 0,9 15 8 - - SE 1026,7 - 0,0
24.03.2020 06:00:00 6,3 0,0 15 8 - - SE 1026,4 - 0,0
24.03.2020 05:00:00 6,7 0,3 16 9 - - SE 1025,9 - 0,0
24.03.2020 04:00:00 7,3 0,1 18 10 - - SE 1025,7 - 0,0
24.03.2020 03:00:00 7,7 0,9 18 10 - - SE 1025,8 - 0,0
24.03.2020 02:00:00 8,0 1,0 18 10 - - SE 1025,9 - 0,0
24.03.2020 01:00:00 7,7 2,6 16 9 - - ESE 1026,0 - 0,0
24.03.2020 00:00:00 8,0 2,6 21 11 - - ESE 1025,9 - 0,0
23.03.2020 23:00:00 8,1 2,8 18 10 - - ESE 1026,2 - 0,0
23.03.2020 22:00:00 7,7 2,6 18 10 - - ESE 1026,3 - 0,0
23.03.2020 21:00:00 7,5 1,0 18 10 - - E 1025,9 - 0,0
23.03.2020 20:00:00 6,6 -0,6 11 6 - - E 1026,0 - 0,0
23.03.2020 19:00:00 6,7 -1,5 13 7 - - E 1025,8 - 0,0
23.03.2020 18:00:00 7,9 -1,5 36 19 - - E 1025,6 10 0,0
23.03.2020 17:00:00 9,0 -1,8 18 10 - - E 1025,5 10 0,0
23.03.2020 16:00:00 8,6 -0,3 47 25 - - E 1025,2 10 0,0
23.03.2020 15:00:00 8,5 0,0 50 27 - - ESE 1025,4 10 0,0
23.03.2020 14:00:00 8,7 1,0 47 25 - - ESE 1025,7 10 0,0
23.03.2020 13:00:00 8,9 0,0 40 22 - - ESE 1026,6 10 0,0
23.03.2020 12:00:00 8,3 -1,2 22 12 - - ESE 1027,1 10 0,0
23.03.2020 11:00:00 7,9 -0,9 24 13 - - E 1027,0 10 0,0
23.03.2020 10:00:00 7,4 -0,3 21 11 - - E 1027,3 10 0,0
23.03.2020 09:00:00 6,5 -0,3 29 16 - - E 1027,2 - 0,0
23.03.2020 08:00:00 5,9 -0,9 28 15 - - E 1027,1 - 0,0
23.03.2020 07:00:00 5,1 -1,0 22 12 - - E 1026,6 - 0,0
23.03.2020 06:00:00 4,3 -1,9 22 12 - - E 1026,1 - 0,0
23.03.2020 05:00:00 4,4 -2,5 21 11 - - E 1026,0 - 0,0
23.03.2020 04:00:00 4,9 -2,5 21 11 - - E 1026,0 - 0,0
23.03.2020 03:00:00 5,7 -2,0 24 13 - - E 1025,6 - 0,0
23.03.2020 02:00:00 4,7 -2,2 9 5 - - NE 1026,1 - 0,0
23.03.2020 01:00:00 6,1 -2,4 18 10 - - E 1026,0 - 0,0
23.03.2020 00:00:00 6,8 -2,7 18 10 - - ENE 1025,6 - 0,0
22.03.2020 23:00:00 7,0 -2,1 21 11 - - ENE 1025,5 - 0,0
22.03.2020 22:00:00 7,1 -1,4 18 10 - - ENE 1025,5 - 0,0
22.03.2020 21:00:00 6,6 -0,8 15 8 - - NE 1025,6 - 0,0

tt = temperature
td = dewpoint
ff = wind speed
fx = gusts
dd = wind direction
ppp = reduced air pressure
vv = visibility
rr = precipitation

Next stations